METEOR-M2 2

Last updated on Sun Apr 12 2026 00:02:27 GMT+0000 (Coordinated Universal Time)

1 44387U 19038A 26101.51036258 .00000327 00000+0 16148-3 0 9991 2 44387 98.9127 87.8241 0001041 154.0504 206.0727 14.24347996351809
UTC large
Height (km)
Speed (km/s)
/
Latitude / Longitude
Inclination (degrees)
Orbital Period (minutes)
Azimuth
Elevation
Range (km)
Doppler Factor

Next 0 passes for location: London (51.5072 / 0.1276)

Sorry there are no passes over London.